TimeCDT,TemperatureF,Dew PointF,Humidity,Sea Level PressureIn,VisibilityMPH,Wind Direction,Wind SpeedMPH,Gust SpeedMPH,PrecipitationIn,Events,Conditions,WindDirDegrees,DateUTC
12:15 AM,68.0,66.2,94,29.79,7.0,Calm,Calm,-,N/A,,Clear,0,2013-06-27 05:15:00
12:35 AM,68.4,66.2,93,29.78,7.0,Calm,Calm,-,N/A,,Clear,0,2013-06-27 05:35:00
12:55 AM,68.4,66.2,93,29.78,7.0,Calm,Calm,-,N/A,,Clear,0,2013-06-27 05:55:00
1:15 AM,68.9,66.9,93,29.78,7.0,Calm,Calm,-,N/A,,Clear,0,2013-06-27 06:15:00
1:35 AM,66.9,65.3,95,29.78,5.0,Calm,Calm,-,N/A,,Clear,0,2013-06-27 06:35:00
1:55 AM,66.7,65.7,96,29.78,4.0,Calm,Calm,-,N/A,,Clear,0,2013-06-27 06:55:00
2:15 AM,66.7,65.7,96,29.77,3.0,Calm,Calm,-,N/A,,Clear,0,2013-06-27 07:15:00
2:35 AM,67.1,66.2,97,29.77,3.0,Calm,Calm,-,N/A,,Clear,0,2013-06-27 07:35:00
2:55 AM,66.6,65.7,97,29.77,3.0,Calm,Calm,-,N/A,,Clear,0,2013-06-27 07:55:00
3:15 AM,65.3,64.4,97,29.77,2.5,Calm,Calm,-,N/A,,Clear,0,2013-06-27 08:15:00
3:35 AM,65.7,64.8,97,29.78,4.0,NNW,3.5,-,N/A,,Clear,330,2013-06-27 08:35:00
3:55 AM,65.7,64.8,97,29.78,3.0,NNW,3.5,-,N/A,,Clear,330,2013-06-27 08:55:00
4:15 AM,65.1,64.2,97,29.78,2.5,West,3.5,-,N/A,,Clear,270,2013-06-27 09:15:00
4:35 AM,65.1,64.4,98,29.78,2.0,WNW,4.6,-,N/A,,Clear,290,2013-06-27 09:35:00
4:55 AM,65.3,64.6,98,29.79,1.5,Calm,Calm,-,N/A,,Mist,0,2013-06-27 09:55:00
5:15 AM,65.5,64.8,98,29.79,1.5,WNW,3.5,-,N/A,,Mist,290,2013-06-27 10:15:00
5:35 AM,64.6,63.9,98,29.79,0.8,WNW,4.6,-,N/A,,Mist,290,2013-06-27 10:35:00
5:55 AM,64.8,64.0,98,29.80,1.0,Calm,Calm,-,N/A,,Mist,0,2013-06-27 10:55:00
6:15 AM,66.6,65.8,98,29.80,1.2,Calm,Calm,-,N/A,,Mist,0,2013-06-27 11:15:00
6:35 AM,68.0,67.1,97,29.79,1.5,Calm,Calm,-,N/A,,Mist,0,2013-06-27 11:35:00
6:55 AM,68.9,67.5,95,29.80,2.0,Calm,Calm,-,N/A,,Mostly Cloudy,0,2013-06-27 11:55:00
7:15 AM,69.4,67.6,94,29.81,2.5,Calm,Calm,-,N/A,,Overcast,0,2013-06-27 12:15:00
7:35 AM,70.3,68.2,93,29.80,3.0,Calm,Calm,-,N/A,,Mostly Cloudy,0,2013-06-27 12:35:00
7:55 AM,72.7,69.4,90,29.80,4.0,West,4.6,-,N/A,,Scattered Clouds,280,2013-06-27 12:55:00
8:15 AM,73.9,69.4,86,29.80,7.0,Calm,Calm,-,N/A,,Scattered Clouds,0,2013-06-27 13:15:00
8:35 AM,76.5,69.6,79,29.79,10.0,West,6.9,-,N/A,,Clear,270,2013-06-27 13:35:00
8:55 AM,77.4,70.0,78,29.80,10.0,West,8.1,-,N/A,,Clear,280,2013-06-27 13:55:00
9:15 AM,78.3,70.9,78,29.80,10.0,West,9.2,-,N/A,,Clear,280,2013-06-27 14:15:00
9:35 AM,79.0,71.8,78,29.80,10.0,WNW,9.2,-,N/A,,Scattered Clouds,290,2013-06-27 14:35:00
9:55 AM,80.2,72.1,76,29.80,10.0,WNW,10.4,-,N/A,,Scattered Clouds,290,2013-06-27 14:55:00
10:15 AM,81.0,72.0,74,29.80,10.0,West,12.7,-,N/A,,Scattered Clouds,280,2013-06-27 15:15:00
10:35 AM,82.0,72.5,73,29.79,10.0,WNW,8.1,-,N/A,,Clear,300,2013-06-27 15:35:00
10:55 AM,82.9,71.6,68,29.79,10.0,WNW,13.8,17.3,N/A,,Unknown,300,2013-06-27 15:55:00
11:15 AM,83.1,71.1,67,29.79,10.0,NW,12.7,-,N/A,,Scattered Clouds,310,2013-06-27 16:15:00
11:35 AM,83.7,70.3,64,29.79,10.0,WNW,12.7,19.6,N/A,,Scattered Clouds,300,2013-06-27 16:35:00
11:55 AM,84.6,70.2,62,29.79,10.0,WNW,12.7,-,N/A,,Clear,300,2013-06-27 16:55:00
12:15 PM,84.9,69.8,60,29.79,10.0,NW,11.5,17.3,N/A,,Clear,320,2013-06-27 17:15:00
12:35 PM,85.3,70.0,60,29.79,10.0,NW,10.4,-,N/A,,Clear,310,2013-06-27 17:35:00
12:55 PM,85.5,68.7,57,29.79,10.0,WNW,12.7,20.7,N/A,,Clear,290,2013-06-27 17:55:00
1:15 PM,86.0,68.7,56,29.80,10.0,WNW,13.8,21.9,N/A,,Clear,300,2013-06-27 18:15:00
1:35 PM,85.8,68.0,55,29.80,10.0,NW,13.8,-,N/A,,Clear,310,2013-06-27 18:35:00
1:55 PM,86.9,67.5,52,29.80,10.0,WNW,12.7,-,N/A,,Clear,300,2013-06-27 18:55:00
2:15 PM,86.9,66.0,50,29.79,10.0,WNW,15.0,20.7,N/A,,Clear,300,2013-06-27 19:15:00
2:35 PM,88.0,66.2,48,29.79,10.0,NW,16.1,20.7,N/A,,Clear,310,2013-06-27 19:35:00
2:55 PM,86.9,65.7,49,29.78,10.0,WNW,13.8,-,N/A,,Mostly Cloudy,300,2013-06-27 19:55:00
3:15 PM,88.0,66.6,49,29.77,10.0,WNW,13.8,21.9,N/A,,Scattered Clouds,290,2013-06-27 20:15:00
3:35 PM,88.0,65.1,46,29.76,10.0,WNW,11.5,-,N/A,,Scattered Clouds,290,2013-06-27 20:35:00
3:55 PM,88.0,64.2,45,29.76,10.0,WNW,15.0,21.9,N/A,,Clear,290,2013-06-27 20:55:00
4:15 PM,88.2,64.9,46,29.76,10.0,WNW,18.4,25.3,N/A,,Scattered Clouds,290,2013-06-27 21:15:00
4:35 PM,87.6,66.2,49,29.74,10.0,West,20.7,-,N/A,,Scattered Clouds,270,2013-06-27 21:35:00
4:55 PM,87.1,64.2,46,29.72,10.0,West,19.6,25.3,N/A,,Scattered Clouds,280,2013-06-27 21:55:00
5:15 PM,87.1,66.2,50,29.71,10.0,West,15.0,26.5,N/A,,Scattered Clouds,270,2013-06-27 22:15:00
5:35 PM,86.5,65.7,50,29.71,10.0,West,19.6,26.5,N/A,,Clear,270,2013-06-27 22:35:00
5:55 PM,86.5,65.7,50,29.71,10.0,West,16.1,26.5,N/A,,Clear,280,2013-06-27 22:55:00
6:15 PM,85.8,67.3,54,29.71,10.0,West,15.0,21.9,N/A,,Scattered Clouds,280,2013-06-27 23:15:00
6:35 PM,86.0,66.4,52,29.71,10.0,WNW,16.1,-,N/A,,Scattered Clouds,290,2013-06-27 23:35:00
6:55 PM,85.3,64.9,50,29.71,10.0,WNW,15.0,23.0,N/A,,Scattered Clouds,300,2013-06-27 23:55:00
7:15 PM,84.7,61.5,45,29.71,10.0,NW,17.3,24.2,N/A,,Clear,310,2013-06-28 00:15:00
7:35 PM,83.7,58.8,43,29.71,10.0,NW,10.4,-,N/A,,Clear,320,2013-06-28 00:35:00
7:55 PM,82.8,57.9,43,29.72,10.0,NW,11.5,-,N/A,,Clear,320,2013-06-28 00:55:00
8:15 PM,79.5,61.2,53,29.72,10.0,WNW,11.5,-,N/A,,Clear,300,2013-06-28 01:15:00
8:35 PM,79.9,59.4,49,29.72,10.0,WNW,11.5,18.4,N/A,,Clear,300,2013-06-28 01:35:00
8:55 PM,77.9,59.4,53,29.72,10.0,WNW,10.4,-,N/A,,Clear,300,2013-06-28 01:55:00
9:15 PM,77.0,59.9,55,29.72,10.0,NW,9.2,-,N/A,,Clear,310,2013-06-28 02:15:00
9:35 PM,76.3,60.3,57,29.73,10.0,WNW,9.2,-,N/A,,Clear,300,2013-06-28 02:35:00
9:55 PM,75.4,60.8,60,29.73,10.0,NW,9.2,-,N/A,,Clear,310,2013-06-28 02:55:00
10:15 PM,75.2,61.0,61,29.73,10.0,WNW,10.4,-,N/A,,Clear,300,2013-06-28 03:15:00
10:35 PM,74.5,61.2,63,29.73,10.0,WNW,11.5,-,N/A,,Clear,300,2013-06-28 03:35:00
10:55 PM,73.4,61.7,67,29.73,10.0,WNW,9.2,-,N/A,,Clear,300,2013-06-28 03:55:00
11:15 PM,73.0,61.7,67,29.74,10.0,WNW,8.1,-,N/A,,Scattered Clouds,290,2013-06-28 04:15:00
11:35 PM,72.7,61.7,68,29.73,10.0,WNW,10.4,-,N/A,,Scattered Clouds,290,2013-06-28 04:35:00
11:55 PM,72.1,61.7,70,29.74,10.0,WNW,10.4,-,N/A,,Clear,300,2013-06-28 04:55:00